Estación de Quillota
Ultimos registro cada 15 minutos 25
| N° | Estación | Fecha / Hora | Temperatura | Humedad | Lluvia | Velocidad | Dirección | Radiación | Presion |
| 25 | Quillota | 05-09-2026 06:00 | 4,1 | 91 | 0 | 0 | 173 | 0 | 1015,8 |
| 24 | Quillota | 05-09-2026 05:45 | 4,4 | 91 | 0 | 0 | 175 | 0 | 1016 |
| 23 | Quillota | 05-09-2026 05:30 | 4,3 | 91 | 0 | 0 | 175 | 0 | 1016,1 |
| 22 | Quillota | 05-09-2026 05:15 | 4,3 | 92 | 0 | 0 | 175 | 0 | 1016,2 |
| 21 | Quillota | 05-09-2026 05:00 | 4,4 | 90 | 0 | 0 | 152 | 0 | 1016,1 |
| 20 | Quillota | 05-09-2026 04:45 | 5,1 | 91 | 0 | 0 | 153 | 0 | 1016,2 |
| 19 | Quillota | 05-09-2026 04:30 | 4,3 | 90 | 0 | 0 | 153 | 0 | 1016,1 |
| 18 | Quillota | 05-09-2026 04:15 | 4,8 | 90 | 0 | 0 | 153 | 0 | 1015,9 |
| 17 | Quillota | 05-09-2026 04:00 | 5,2 | 89 | 0 | 0,4 | 153 | 0 | 1016,1 |
| 16 | Quillota | 05-09-2026 03:45 | 5,5 | 90 | 0 | 0 | 80 | 0 | 1016,2 |
| 15 | Quillota | 05-09-2026 03:30 | 6,4 | 91 | 0 | 0,4 | 167 | 0 | 1016,4 |
| 14 | Quillota | 05-09-2026 03:15 | 5,9 | 91 | 0 | 0,4 | 125 | 0 | 1016,5 |
| 13 | Quillota | 05-09-2026 03:00 | 5,7 | 91 | 0 | 0 | 151 | 0 | 1016,6 |
| 12 | Quillota | 05-09-2026 02:45 | 5,1 | 90 | 0 | 0 | 154 | 0 | 1016,8 |
| 11 | Quillota | 05-09-2026 02:30 | 5,7 | 90 | 0 | 0 | 154 | 0 | 1017 |
| 10 | Quillota | 05-09-2026 02:15 | 5,8 | 90 | 0 | 0,4 | 84 | 0 | 1017,2 |
| 9 | Quillota | 05-09-2026 02:00 | 5,8 | 90 | 0 | 0 | 323 | 0 | 1017,1 |
| 8 | Quillota | 05-09-2026 01:45 | 6 | 89 | 0 | 0 | 323 | 0 | 1017,2 |
| 7 | Quillota | 05-09-2026 01:30 | 5,9 | 89 | 0 | 0 | 171 | 0 | 1017,3 |
| 6 | Quillota | 05-09-2026 01:15 | 6,3 | 90 | 0 | 0 | 171 | 0 | 1017,5 |
| 5 | Quillota | 05-09-2026 01:00 | 6,1 | 89 | 0 | 0 | 171 | 0 | 1017,6 |
| 4 | Quillota | 05-09-2026 00:45 | 5,9 | 88 | 0 | 0 | 171 | 0 | 1017,5 |
| 3 | Quillota | 05-09-2026 00:30 | 6,5 | 88 | 0 | 0 | 171 | 0 | 1017,7 |
| 2 | Quillota | 05-09-2026 00:15 | 6,7 | 87 | 0 | 0 | 171 | 0 | 1017,6 |
| 1 | Quillota | 05-09-2026 00:00 | 7,5 | 86 | 0 | 0 | 171 | 0 | 1017,9 |